Regional Weather Roundup
Issued by NWS

Home | Current Version | Previous Version | Graphics & Text | Print | Product List | Glossary On
Versions: 1 2 3 4 5 6 7 8 9 10 11 12 13 14 15 16 17 18 19 20 21 22 23 24 25 26 27 28 29 30 31 32 33 34 35 36 37 38 39 40 41 42 43 44 45 46 47 48 49 50
000
ASUS45 KABQ 031501
RWRNM
WEATHER ROUNDUP FOR NEW MEXICO
NATIONAL WEATHER SERVICE ALBUQUERQUE NM
900 AM MDT SUN MAY 03 2015

NOTE: "FAIR" MEANS FEW OR NO CLOUDS BELOW 12,000 FEET AGL WITH NO
       SIGNIFICANT WEATHER OR OBSTRUCTIONS TO VISION.

      THIS PRODUCT IS RELEASED AS TWO VERSIONS.  ONE VERSION NEAR
      THE TOP OF THE HOUR CONTAINING PRELIMINARY DATA FROM ALBUQUERQUE
      AND OTHER STATIONS.  A FINAL VERSION WITH ADDITIONAL DATA IS
      ISSUED ABOUT 10 MINUTES AFTER THE HOUR.

NMZ501-503-504-510>518-031600-
NORTHWEST PLATEAU/NORTHCENTRAL MOUNTAINS

CITY           SKY/WX    TMP DP  RH WIND       PRES   REMARKS
FARMINGTON     PTSUNNY   60  36  40 S3        30.07R
SANTA FE       PTSUNNY   55  36  48 N8        30.10R
TAOS           MOSUNNY   52  34  50 CALM      30.15S
ANGEL FIRE     FAIR      43  35  73 N3        30.20S

$$
NMZ402-403-502-505>509-031600-
WESTCENTRAL MOUNTAINS/SOUTHWEST MOUNTAINS

CITY           SKY/WX    TMP DP  RH WIND       PRES   REMARKS
GALLUP         SUNNY     55  40  56 S6        30.13R
GRANTS         PTSUNNY   54  39  57 CALM      30.14S
SILVER CITY      N/A     66  34  30 NW14      30.09S

$$
NMZ407-409-411-412-031600-
SOUTHERN DESERTS

CITY           SKY/WX    TMP DP  RH WIND       PRES   REMARKS
DEMING         SUNNY     67  38  34 SW7       30.03R
ALAMOGORDO     SUNNY     75  34  22 NE10      30.00R
T OR C         SUNNY     69  35  28 NW7       30.03R

$$
NMZ519>523-031600-
CENTRAL VALLEYS/CENTRAL HIGHLANDS

CITY           SKY/WX    TMP DP  RH WIND       PRES   REMARKS
ALBUQUERQUE    MOSUNNY   62  38  40 N6        30.08R
DOUBLE EAGLE   PTSUNNY   61  39  44 CALM      30.10R
MORIARTY ARPT  FAIR      61  32  34 N3        30.11S
CLINES CORNERS MOSUNNY   61  33  35 NW14      30.11S
BELEN          FAIR      64  37  37 E5        30.07S
SOCORRO        NOT AVBL

$$
NMZ524>526-539-540-031600-
SOUTHCENTRAL MOUNTAINS

CITY           SKY/WX    TMP DP  RH WIND       PRES   REMARKS
RUIDOSO        NOT AVBL

$$
NMZ527>531-031600-
NORTHEAST HIGHLANDS/NORTHEAST PLAINS

CITY           SKY/WX    TMP DP  RH WIND       PRES   REMARKS
LAS VEGAS      PTSUNNY   58  35  42 NE3       30.11R
RATON          MOSUNNY   57  35  43 NE7       30.05S
CLAYTON        MOSUNNY   72  40  31 W9        29.97F

$$
NMZ532>537-031600-
EASTCENTRAL PLAINS

CITY           SKY/WX    TMP DP  RH WIND       PRES   REMARKS
TUCUMCARI      SUNNY     69  43  38 CALM      29.96S
CANNON AFB     NOT AVBL
CLOVIS AIRPORT SUNNY     72  46  40 SW16      29.97S

$$
NMZ028-029-538-031600-
SOUTHEAST PLAINS

CITY           SKY/WX    TMP DP  RH WIND       PRES   REMARKS
ROSWELL        MOSUNNY   67  48  50 SE8       29.97R
ARTESIA        MOSUNNY   66  48  52 SE12      29.96F
CARLSBAD       PTSUNNY   65  47  52 SE5       29.95S
HOBBS          SUNNY     64  46  52 SE10      29.99S


$$



USA.gov is the U.S. government's official web portal to all federal, state and local government web resources and services.